User: anonymous   Login
Location: Brno
(49.2000°N, 16.6330°E)
Time: 06:27:55
(UTC+02:00)
Language:

ISS - Orbit

View from above orbital plane
View from above orbital plane
View from above satellite
View from above satellite

Ground track
Ground track

The orbit data is extracted from the following two-line orbital elements,

1 25544U 98067A   15088.56996399  .00014284  00000-0  21265-3 0  9996
2 25544 051.6459 121.7641 0006975 151.1762 356.7520 15.55374947935649
Epoch (UTC): 29 March 2015 13:40:44
Eccentricity: 0.0006975
inclination: 51.6459°
perigee height: 396 km
apogee height: 406 km
right ascension of ascending node: 121.7641°
argument of perigee: 151.1762°
revolutions per day: 15.55374947
mean anomaly at epoch: 356.7520°
orbit number at epoch: 93564

The dashed part of the orbit path shows where the satellite is in the earth's shadow,  

DLR